| time (UTC) | temp F | wind direction | speed MPH | gust MPH | rain 1hr in | rain 24hr in | rain mn in | humidity % | barometer mb |
| 20260906231223 | 61 | 48 | 0.0 | 0.0 | 0.00 | 0.00 | 0.00 | 75 | 1025.0 |
| 20260906230723 | 61 | 47 | 0.0 | 0.0 | 0.00 | 0.00 | 0.00 | 75 | 1025.0 |
| 20260906230231 | 61 | 47 | 0.0 | 0.0 | 0.00 | 0.00 | 0.00 | 74 | 1025.0 |
| 20260906225719 | 61 | 48 | 0.0 | 0.0 | 0.00 | 0.00 | 0.00 | 74 | 1025.1 |
| 20260906225221 | 61 | 47 | 0.0 | 0.0 | 0.00 | 0.00 | 0.00 | 74 | 1025.1 |
| 20260906224245 | 61 | 47 | 0.0 | 0.0 | 0.00 | 0.00 | 0.00 | 74 | 1025.1 |
| 20260906223711 | 60 | 48 | 0.0 | 0.0 | 0.00 | 0.00 | 0.00 | 73 | 1025.1 |
| 20260906222720 | 61 | 9 | 0.0 | 0.0 | 0.00 | 0.00 | 0.00 | 74 | 1025.1 |
| 20260906222229 | 60 | 9 | 0.0 | 0.0 | 0.00 | 0.00 | 0.00 | 73 | 1025.1 |
| 20260906221724 | 61 | 9 | 0.0 | 0.0 | 0.00 | 0.00 | 0.00 | 73 | 1025.2 |
| 20260906221216 | 60 | 9 | 0.0 | 0.0 | 0.00 | 0.00 | 0.00 | 73 | 1025.3 |
| 20260906220718 | 60 | 9 | 0.0 | 0.0 | 0.00 | 0.00 | 0.00 | 73 | 1025.3 |
| 20260906220231 | 60 | 9 | 0.0 | 0.0 | 0.00 | 0.00 | 0.00 | 73 | 1025.3 |
| 20260906215230 | 60 | 86 | 0.0 | 0.0 | 0.00 | 0.00 | 0.00 | 73 | 1025.3 |
| 20260906214707 | 60 | 86 | 0.0 | 0.0 | 0.00 | 0.00 | 0.00 | 73 | 1025.3 |
| 20260906213724 | 61 | 86 | 0.0 | 0.0 | 0.00 | 0.00 | 0.00 | 73 | 1025.2 |
| 20260906212729 | 61 | 86 | 0.0 | 0.0 | 0.00 | 0.00 | 0.00 | 72 | 1025.2 |
| 20260906212216 | 61 | 86 | 0.0 | 0.0 | 0.00 | 0.00 | 0.00 | 72 | 1025.2 |
| 20260906211716 | 61 | 86 | 0.0 | 0.0 | 0.00 | 0.00 | 0.00 | 72 | 1025.2 |
| 20260906211225 | 61 | 86 | 0.0 | 0.0 | 0.00 | 0.00 | 0.00 | 72 | 1025.1 |
| 20260906210257 | 61 | 86 | 0.0 | 0.0 | 0.00 | 0.00 | 0.00 | 72 | 1025.0 |
| 20260906205714 | 61 | 86 | 0.0 | 0.0 | 0.00 | 0.00 | 0.00 | 72 | 1025.2 |
| 20260906205216 | 62 | 71 | 0.0 | 0.0 | 0.00 | 0.00 | 0.00 | 72 | 1025.1 |
| 20260906204717 | 62 | 71 | 0.0 | 0.0 | 0.00 | 0.00 | 0.00 | 71 | 1025.1 |
| 20260906204218 | 62 | 71 | 0.0 | 0.0 | 0.00 | 0.00 | 0.00 | 71 | 1025.0 |
| 20260906203718 | 62 | 71 | 0.0 | 0.0 | 0.00 | 0.00 | 0.00 | 71 | 1025.1 |
| 20260906203210 | 62 | 71 | 0.0 | 0.0 | 0.00 | 0.00 | 0.00 | 71 | 1025.2 |
| 20260906202718 | 62 | 45 | 0.0 | 0.0 | 0.00 | 0.00 | 0.00 | 70 | 1025.2 |
| 20260906202225 | 62 | 45 | 0.0 | 0.0 | 0.00 | 0.00 | 0.00 | 70 | 1025.2 |
| 20260906201714 | 62 | 45 | 0.0 | 0.0 | 0.00 | 0.00 | 0.00 | 69 | 1025.3 |
| 20260906201215 | 62 | 45 | 0.0 | 0.0 | 0.00 | 0.00 | 0.00 | 70 | 1025.3 |
| 20260906200212 | 63 | 45 | 0.0 | 0.0 | 0.00 | 0.00 | 0.00 | 69 | 1025.4 |
| 20260906195717 | 63 | 42 | 0.0 | 0.0 | 0.00 | 0.00 | 0.00 | 68 | 1025.4 |
| 20260906195218 | 63 | 42 | 0.0 | 0.0 | 0.00 | 0.00 | 0.00 | 68 | 1025.5 |
| 20260906194730 | 63 | 42 | 0.0 | 0.0 | 0.00 | 0.00 | 0.00 | 68 | 1025.4 |
| 20260906193213 | 64 | 42 | 0.0 | 0.0 | 0.00 | 0.00 | 0.00 | 67 | 1025.4 |
| 20260906192729 | 64 | 42 | 0.0 | 0.0 | 0.00 | 0.00 | 0.00 | 67 | 1025.4 |
| 20260906192209 | 64 | 42 | 0.0 | 0.0 | 0.00 | 0.00 | 0.00 | 67 | 1025.4 |
| 20260906191729 | 65 | 42 | 0.0 | 0.0 | 0.00 | 0.00 | 0.00 | 66 | 1025.3 |
| 20260906191223 | 65 | 42 | 0.0 | 0.0 | 0.00 | 0.00 | 0.00 | 66 | 1025.4 |
| 20260906190711 | 65 | 42 | 0.0 | 0.0 | 0.00 | 0.00 | 0.00 | 66 | 1025.3 |
| 20260906190215 | 65 | 42 | 0.0 | 0.0 | 0.00 | 0.00 | 0.00 | 65 | 1025.3 |
| 20260906185725 | 65 | 42 | 0.0 | 0.0 | 0.00 | 0.00 | 0.00 | 65 | 1025.3 |
| 20260906184710 | 66 | 42 | 0.0 | 0.0 | 0.00 | 0.00 | 0.00 | 64 | 1025.4 |
| 20260906184209 | 66 | 42 | 0.0 | 0.0 | 0.00 | 0.00 | 0.00 | 64 | 1025.4 |
| 20260906183721 | 67 | 44 | 0.0 | 0.0 | 0.00 | 0.00 | 0.00 | 64 | 1025.4 |
| 20260906183229 | 67 | 44 | 0.0 | 0.0 | 0.00 | 0.00 | 0.00 | 62 | 1025.3 |
| 20260906182716 | 67 | 45 | 0.0 | 0.0 | 0.00 | 0.00 | 0.00 | 62 | 1025.2 |
| 20260906182227 | 67 | 45 | 0.0 | 0.0 | 0.00 | 0.00 | 0.00 | 63 | 1025.2 |
| 20260906181714 | 68 | 45 | 0.0 | 0.0 | 0.00 | 0.00 | 0.00 | 63 | 1025.1 |
| 20260906181225 | 68 | 45 | 0.0 | 0.0 | 0.00 | 0.00 | 0.00 | 64 | 1025.1 |
| 20260906180729 | 68 | 342 | 0.0 | 0.0 | 0.00 | 0.00 | 0.00 | 62 | 1025.0 |
| 20260906180221 | 68 | 329 | 0.0 | 0.0 | 0.00 | 0.00 | 0.00 | 61 | 1025.0 |
| 20260906175721 | 68 | 329 | 0.0 | 0.0 | 0.00 | 0.00 | 0.00 | 62 | 1025.0 |
| 20260906175228 | 69 | 329 | 0.0 | 0.0 | 0.00 | 0.00 | 0.00 | 62 | 1025.0 |
| 20260906174721 | 69 | 329 | 0.0 | 0.0 | 0.00 | 0.00 | 0.00 | 61 | 1025.0 |
| 20260906174221 | 69 | 323 | 0.0 | 0.0 | 0.00 | 0.00 | 0.00 | 61 | 1025.0 |
| 20260906173726 | 69 | 63 | 0.0 | 0.0 | 0.00 | 0.00 | 0.00 | 60 | 1024.9 |
| 20260906173214 | 69 | 309 | 0.0 | 0.0 | 0.00 | 0.00 | 0.00 | 59 | 1024.9 |
| 20260906172727 | 70 | 328 | 0.0 | 0.0 | 0.00 | 0.00 | 0.00 | 58 | 1024.9 |
| 20260906172231 | 70 | 307 | 0.0 | 0.0 | 0.00 | 0.00 | 0.00 | 57 | 1024.9 |
| 20260906171728 | 71 | 319 | 0.0 | 0.0 | 0.00 | 0.00 | 0.00 | 55 | 1024.9 |
| 20260906171230 | 71 | 323 | 0.0 | 0.0 | 0.00 | 0.00 | 0.00 | 55 | 1024.9 |
| 20260906170725 | 72 | 5 | 0.0 | 1.0 | 0.00 | 0.00 | 0.00 | 54 | 1024.8 |
| 20260906170209 | 72 | 348 | 0.0 | 1.0 | 0.00 | 0.00 | 0.00 | 53 | 1024.9 |
| 20260906165720 | 73 | 340 | 0.0 | 1.0 | 0.00 | 0.00 | 0.00 | 52 | 1024.8 |
| 20260906165224 | 73 | 345 | 0.0 | 0.0 | 0.00 | 0.00 | 0.00 | 51 | 1024.8 |
| 20260906164709 | 74 | 333 | 0.0 | 4.0 | 0.00 | 0.00 | 0.00 | 50 | 1024.7 |
| 20260906164218 | 75 | 325 | 0.0 | 4.0 | 0.00 | 0.00 | 0.00 | 50 | 1024.7 |
| 20260906163720 | 76 | 295 | 2.0 | 5.0 | 0.00 | 0.00 | 0.00 | 46 | 1024.6 |
| 20260906162717 | 77 | 327 | 1.0 | 5.0 | 0.00 | 0.00 | 0.00 | 45 | 1024.7 |
| 20260906161727 | 78 | 323 | 1.0 | 4.0 | 0.00 | 0.00 | 0.00 | 45 | 1024.7 |
| 20260906161207 | 78 | 320 | 1.0 | 4.0 | 0.00 | 0.00 | 0.00 | 45 | 1024.7 |
| 20260906160225 | 80 | 301 | 0.0 | 0.0 | 0.00 | 0.00 | 0.00 | 44 | 1024.6 |
| 20260906155718 | 80 | 322 | 0.0 | 0.0 | 0.00 | 0.00 | 0.00 | 45 | 1024.7 |
| 20260906155226 | 79 | 313 | 0.0 | 0.0 | 0.00 | 0.00 | 0.00 | 43 | 1024.8 |
| 20260906154221 | 80 | 269 | 0.0 | 0.0 | 0.00 | 0.00 | 0.00 | 40 | 1024.8 |
| 20260906153721 | 80 | 306 | 0.0 | 0.0 | 0.00 | 0.00 | 0.00 | 41 | 1024.8 |
| 20260906153210 | 79 | 296 | 0.0 | 2.0 | 0.00 | 0.00 | 0.00 | 41 | 1024.8 |
| 20260906152752 | 79 | 235 | 0.0 | 3.0 | 0.00 | 0.00 | 0.00 | 40 | 1024.8 |
| 20260906152224 | 80 | 221 | 0.0 | 6.0 | 0.00 | 0.00 | 0.00 | 39 | 1024.8 |
| 20260906151228 | 80 | 154 | 1.0 | 6.0 | 0.00 | 0.00 | 0.00 | 36 | 1025.0 |
| 20260906150713 | 80 | 191 | 1.0 | 5.0 | 0.00 | 0.00 | 0.00 | 36 | 1025.0 |
| 20260906150230 | 80 | 223 | 1.0 | 5.0 | 0.00 | 0.00 | 0.00 | 36 | 1025.0 |
| 20260906145725 | 81 | 163 | 0.0 | 5.0 | 0.00 | 0.00 | 0.00 | 37 | 1025.0 |
| 20260906144229 | 81 | 198 | 0.0 | 4.0 | 0.00 | 0.00 | 0.00 | 36 | 1025.0 |
| 20260906143237 | 81 | 320 | 0.0 | 4.0 | 0.00 | 0.00 | 0.00 | 36 | 1025.0 |
| 20260906142724 | 81 | 193 | 0.0 | 4.0 | 0.00 | 0.00 | 0.00 | 35 | 1025.0 |
| 20260906142213 | 81 | 188 | 0.0 | 2.0 | 0.00 | 0.00 | 0.00 | 37 | 1025.0 |
| 20260906141723 | 81 | 181 | 0.0 | 4.0 | 0.00 | 0.00 | 0.00 | 36 | 1025.1 |
| 20260906140727 | 80 | 312 | 0.0 | 5.0 | 0.00 | 0.00 | 0.00 | 37 | 1025.1 |
| 20260906140233 | 80 | 185 | 1.0 | 5.0 | 0.00 | 0.00 | 0.00 | 37 | 1025.2 |
| 20260906135228 | 80 | 178 | 0.0 | 4.0 | 0.00 | 0.00 | 0.00 | 37 | 1025.2 |
| 20260906134715 | 81 | 189 | 0.0 | 1.0 | 0.00 | 0.00 | 0.00 | 36 | 1025.3 |
| 20260906134220 | 81 | 201 | 0.0 | 2.0 | 0.00 | 0.00 | 0.00 | 38 | 1025.3 |
| 20260906133216 | 80 | 348 | 0.0 | 5.0 | 0.00 | 0.00 | 0.00 | 39 | 1025.3 |
| 20260906132717 | 80 | 252 | 0.0 | 5.0 | 0.00 | 0.00 | 0.00 | 36 | 1025.3 |
| 20260906132220 | 80 | 196 | 0.0 | 4.0 | 0.00 | 0.00 | 0.00 | 38 | 1025.3 |
| 20260906131214 | 80 | 158 | 1.0 | 6.0 | 0.00 | 0.00 | 0.00 | 39 | 1025.4 |
| 20260906130721 | 80 | 263 | 1.0 | 8.0 | 0.00 | 0.00 | 0.00 | 42 | 1025.7 |
| 20260906130217 | 80 | 170 | 1.0 | 8.0 | 0.00 | 0.00 | 0.00 | 39 | 1025.5 |
| 20260906125720 | 79 | 194 | 1.0 | 8.0 | 0.00 | 0.00 | 0.00 | 42 | 1025.7 |
| 20260906125218 | 79 | 233 | 1.0 | 7.0 | 0.00 | 0.00 | 0.00 | 41 | 1025.7 |
| 20260906124724 | 79 | 140 | 1.0 | 7.0 | 0.00 | 0.00 | 0.00 | 40 | 1025.8 |
| 20260906124218 | 80 | 195 | 1.0 | 9.0 | 0.00 | 0.00 | 0.00 | 39 | 1025.8 |
| 20260906123725 | 80 | 212 | 1.0 | 9.0 | 0.00 | 0.00 | 0.00 | 41 | 1025.8 |
| 20260906122718 | 80 | 234 | 3.0 | 10.0 | 0.00 | 0.00 | 0.00 | 41 | 1026.0 |
| 20260906122208 | 80 | 140 | 3.0 | 10.0 | 0.00 | 0.00 | 0.00 | 40 | 1026.0 |
| 20260906121715 | 79 | 160 | 1.0 | 8.0 | 0.00 | 0.00 | 0.00 | 41 | 1025.9 |
| 20260906121215 | 80 | 155 | 1.0 | 7.0 | 0.00 | 0.00 | 0.00 | 38 | 1025.9 |
| 20260906120715 | 79 | 134 | 1.0 | 7.0 | 0.00 | 0.00 | 0.00 | 39 | 1026.0 |
| 20260906120215 | 79 | 124 | 0.0 | 5.0 | 0.00 | 0.00 | 0.00 | 39 | 1025.9 |
| 20260906115728 | 78 | 207 | 1.0 | 5.0 | 0.00 | 0.00 | 0.00 | 39 | 1025.9 |
| 20260906115219 | 78 | 194 | 1.0 | 7.0 | 0.00 | 0.00 | 0.00 | 40 | 1026.0 |
| 20260906114722 | 77 | 210 | 1.0 | 7.0 | 0.00 | 0.00 | 0.00 | 39 | 1026.1 |
| 20260906113711 | 78 | 138 | 1.0 | 6.0 | 0.00 | 0.00 | 0.00 | 38 | 1026.1 |
| 20260906113221 | 78 | 165 | 1.0 | 6.0 | 0.00 | 0.00 | 0.00 | 39 | 1026.1 |
| 20260906112711 | 77 | 144 | 1.0 | 6.0 | 0.00 | 0.00 | 0.00 | 41 | 1026.1 |
| 20260906112220 | 77 | 233 | 0.0 | 8.0 | 0.00 | 0.00 | 0.00 | 40 | 1026.2 |
| 20260906111218 | 77 | 169 | 1.0 | 8.0 | 0.00 | 0.00 | 0.00 | 42 | 1026.2 |
| 20260906110724 | 77 | 219 | 1.0 | 7.0 | 0.00 | 0.00 | 0.00 | 43 | 1026.2 |
| 20260906110228 | 76 | 323 | 2.0 | 7.0 | 0.00 | 0.01 | 0.00 | 43 | 1026.2 |
| 20260906105710 | 76 | 159 | 2.0 | 7.0 | 0.00 | 0.01 | 0.00 | 43 | 1026.2 |
| 20260906105209 | 76 | 171 | 1.0 | 7.0 | 0.00 | 0.01 | 0.00 | 43 | 1026.3 |
| 20260906103713 | 76 | 162 | 1.0 | 5.0 | 0.00 | 0.01 | 0.00 | 46 | 1026.5 |
| 20260906103216 | 75 | 161 | 1.0 | 6.0 | 0.00 | 0.01 | 0.00 | 45 | 1026.5 |
| 20260906102727 | 75 | 135 | 1.0 | 6.0 | 0.00 | 0.01 | 0.00 | 46 | 1026.5 |
| 20260906102220 | 75 | 170 | 2.0 | 7.0 | 0.00 | 0.01 | 0.00 | 48 | 1026.5 |
| 20260906101739 | 74 | 179 | 2.0 | 7.0 | 0.00 | 0.01 | 0.00 | 47 | 1026.5 |
| 20260906100713 | 75 | 144 | 1.0 | 5.0 | 0.00 | 0.01 | 0.00 | 48 | 1026.6 |
| 20260906100252 | 74 | 198 | 1.0 | 6.0 | 0.00 | 0.01 | 0.00 | 49 | 1026.7 |
| 20260906095726 | 74 | 71 | 1.0 | 6.0 | 0.00 | 0.01 | 0.00 | 50 | 1026.8 |
| 20260906095206 | 74 | 164 | 1.0 | 6.0 | 0.00 | 0.01 | 0.00 | 50 | 1026.8 |
| 20260906094220 | 73 | 188 | 1.0 | 6.0 | 0.00 | 0.01 | 0.00 | 50 | 1026.8 |
| 20260906093713 | 74 | 174 | 0.0 | 4.0 | 0.00 | 0.01 | 0.00 | 49 | 1026.8 |
| 20260906093222 | 73 | 161 | 0.0 | 4.0 | 0.00 | 0.01 | 0.00 | 51 | 1027.0 |
| 20260906092727 | 73 | 153 | 0.0 | 0.0 | 0.00 | 0.01 | 0.00 | 47 | 1027.0 |
| 20260906092219 | 73 | 301 | 0.0 | 0.0 | 0.00 | 0.01 | 0.00 | 48 | 1027.0 |
| 20260906091707 | 73 | 148 | 0.0 | 1.0 | 0.00 | 0.01 | 0.00 | 50 | 1027.0 |
| 20260906091221 | 72 | 157 | 0.0 | 3.0 | 0.00 | 0.01 | 0.00 | 50 | 1027.0 |
| 20260906090724 | 71 | 154 | 0.0 | 3.0 | 0.00 | 0.01 | 0.00 | 49 | 1027.1 |
| 20260906090227 | 71 | 175 | 0.0 | 3.0 | 0.00 | 0.01 | 0.00 | 51 | 1027.1 |
| 20260906085708 | 71 | 181 | 0.0 | 4.0 | 0.00 | 0.01 | 0.00 | 51 | 1027.1 |
| 20260906085211 | 70 | 181 | 0.0 | 5.0 | 0.00 | 0.01 | 0.00 | 50 | 1027.0 |
| 20260906084723 | 70 | 171 | 1.0 | 5.0 | 0.00 | 0.01 | 0.00 | 51 | 1027.0 |
| 20260906084222 | 70 | 172 | 1.0 | 5.0 | 0.00 | 0.01 | 0.00 | 52 | 1027.1 |
| 20260906083714 | 69 | 173 | 2.0 | 5.0 | 0.00 | 0.01 | 0.00 | 53 | 1027.1 |
| 20260906082706 | 69 | 186 | 1.0 | 5.0 | 0.00 | 0.01 | 0.00 | 55 | 1027.1 |
| 20260906082212 | 68 | 175 | 1.0 | 5.0 | 0.00 | 0.01 | 0.00 | 54 | 1027.2 |
| 20260906081712 | 68 | 180 | 0.0 | 0.0 | 0.00 | 0.01 | 0.00 | 56 | 1027.2 |
| 20260906081225 | 68 | 178 | 0.0 | 0.0 | 0.00 | 0.01 | 0.00 | 58 | 1027.3 |
| 20260906080719 | 67 | 180 | 0.0 | 0.0 | 0.00 | 0.01 | 0.00 | 57 | 1027.3 |
| 20260906080221 | 67 | 169 | 0.0 | 0.0 | 0.00 | 0.01 | 0.00 | 58 | 1027.3 |
| 20260906075712 | 67 | 155 | 0.0 | 0.0 | 0.00 | 0.01 | 0.00 | 61 | 1027.2 |
| 20260906075230 | 66 | 148 | 0.0 | 0.0 | 0.00 | 0.01 | 0.00 | 61 | 1027.3 |
| 20260906074208 | 65 | 126 | 0.0 | 0.0 | 0.00 | 0.01 | 0.00 | 65 | 1027.2 |
| 20260906073222 | 64 | 126 | 0.0 | 0.0 | 0.00 | 0.02 | 0.00 | 71 | 1027.2 |
| 20260906072720 | 63 | 126 | 0.0 | 0.0 | 0.00 | 0.04 | 0.00 | 72 | 1027.2 |
| 20260906072215 | 62 | 126 | 0.0 | 0.0 | 0.00 | 0.05 | 0.00 | 72 | 1027.2 |
| 20260906071723 | 61 | 126 | 0.0 | 0.0 | 0.00 | 0.05 | 0.00 | 77 | 1027.2 |
| 20260906071228 | 60 | 126 | 0.0 | 0.0 | 0.00 | 0.05 | 0.00 | 76 | 1027.2 |
| 20260906070744 | 59 | 126 | 0.0 | 0.0 | 0.00 | 0.05 | 0.00 | 82 | 1027.3 |
| 20260906070216 | 59 | 126 | 0.0 | 0.0 | 0.00 | 0.05 | 0.00 | 84 | 1027.2 |
| 20260906065725 | 58 | 126 | 0.0 | 0.0 | 0.00 | 0.05 | 0.00 | 85 | 1027.2 |
| 20260906065213 | 57 | 126 | 0.0 | 0.0 | 0.00 | 0.05 | 0.00 | 85 | 1027.3 |
| 20260906064726 | 56 | 126 | 0.0 | 0.0 | 0.00 | 0.05 | 0.00 | 86 | 1027.3 |
| 20260906064213 | 55 | 126 | 0.0 | 0.0 | 0.00 | 0.05 | 0.00 | 88 | 1027.3 |
| 20260906063716 | 55 | 126 | 0.0 | 0.0 | 0.00 | 0.05 | 0.00 | 90 | 1027.4 |
| 20260906062726 | 53 | 126 | 0.0 | 0.0 | 0.00 | 0.05 | 0.00 | 91 | 1027.4 |
| 20260906062216 | 53 | 126 | 0.0 | 0.0 | 0.00 | 0.05 | 0.00 | 90 | 1027.4 |
| 20260906061722 | 52 | 126 | 0.0 | 0.0 | 0.00 | 0.05 | 0.00 | 90 | 1027.4 |
| 20260906061215 | 52 | 126 | 0.0 | 0.0 | 0.00 | 0.05 | 0.00 | 89 | 1027.4 |
| 20260906060724 | 52 | 126 | 0.0 | 0.0 | 0.00 | 0.05 | 0.00 | 90 | 1027.4 |
| 20260906060229 | 52 | 126 | 0.0 | 0.0 | 0.00 | 0.05 | 0.00 | 89 | 1027.3 |
| 20260906055711 | 52 | 126 | 0.0 | 0.0 | 0.00 | 0.05 | 0.00 | 89 | 1027.3 |
| 20260906055220 | 52 | 126 | 0.0 | 0.0 | 0.00 | 0.05 | 0.00 | 90 | 1027.3 |
| 20260906054718 | 52 | 126 | 0.0 | 0.0 | 0.00 | 0.05 | 0.00 | 90 | 1027.2 |
| 20260906054209 | 52 | 126 | 0.0 | 0.0 | 0.00 | 0.05 | 0.00 | 89 | 1027.2 |
| 20260906053224 | 52 | 126 | 0.0 | 1.0 | 0.00 | 0.05 | 0.00 | 89 | 1027.3 |
| 20260906052728 | 52 | 96 | 0.0 | 5.0 | 0.00 | 0.05 | 0.00 | 90 | 1027.3 |
| 20260906052221 | 52 | 13 | 0.0 | 5.0 | 0.00 | 0.05 | 0.00 | 90 | 1027.3 |
| 20260906051740 | 52 | 13 | 0.0 | 3.0 | 0.00 | 0.05 | 0.00 | 90 | 1027.1 |
| 20260906051219 | 52 | 5 | 0.0 | 0.0 | 0.00 | 0.05 | 0.00 | 90 | 1027.0 |
| 20260906050717 | 52 | 5 | 0.0 | 0.0 | 0.00 | 0.05 | 0.00 | 89 | 1027.0 |
| 20260906050232 | 52 | 117 | 0.0 | 0.0 | 0.00 | 0.05 | 0.00 | 89 | 1027.0 |
| 20260906045716 | 52 | 117 | 0.0 | 0.0 | 0.00 | 0.05 | 0.00 | 89 | 1027.0 |
| 20260906045222 | 52 | 15 | 0.0 | 0.0 | 0.00 | 0.05 | 0.00 | 89 | 1027.0 |
| 20260906044731 | 52 | 15 | 0.0 | 0.0 | 0.00 | 0.05 | 0.00 | 89 | 1027.1 |
| 20260906044215 | 52 | 15 | 0.0 | 0.0 | 0.00 | 0.05 | 0.00 | 89 | 1027.1 |
| 20260906043728 | 52 | 15 | 0.0 | 0.0 | 0.00 | 0.05 | 0.00 | 89 | 1027.1 |
| 20260906043217 | 52 | 15 | 0.0 | 0.0 | 0.00 | 0.05 | 0.00 | 89 | 1027.1 |
| 20260906042725 | 52 | 15 | 0.0 | 0.0 | 0.00 | 0.05 | 0.00 | 89 | 1027.0 |
| 20260906042215 | 52 | 15 | 0.0 | 0.0 | 0.00 | 0.05 | 0.00 | 89 | 1027.0 |
| 20260906041749 | 52 | 15 | 0.0 | 0.0 | 0.00 | 0.05 | 0.00 | 89 | 1027.0 |
| 20260906041301 | 52 | 15 | 0.0 | 0.0 | 0.00 | 0.05 | 0.00 | 88 | 1027.0 |
| 20260906040719 | 52 | 15 | 0.0 | 0.0 | 0.00 | 0.06 | 0.00 | 88 | 1026.8 |
| 20260906040236 | 52 | 15 | 0.0 | 0.0 | 0.00 | 0.06 | 0.00 | 88 | 1027.0 |
| 20260906035711 | 52 | 15 | 0.0 | 0.0 | 0.00 | 0.06 | 0.00 | 88 | 1027.1 |
| 20260906035222 | 52 | 15 | 0.0 | 0.0 | 0.00 | 0.06 | 0.00 | 88 | 1027.0 |
| 20260906034723 | 53 | 15 | 0.0 | 0.0 | 0.00 | 0.06 | 0.00 | 88 | 1027.0 |
| 20260906034216 | 53 | 15 | 0.0 | 0.0 | 0.00 | 0.06 | 0.00 | 88 | 1027.1 |
| 20260906033715 | 53 | 15 | 0.0 | 0.0 | 0.00 | 0.06 | 0.00 | 88 | 1027.0 |
| 20260906033219 | 53 | 15 | 0.0 | 0.0 | 0.00 | 0.06 | 0.00 | 88 | 1027.1 |
| 20260906032209 | 53 | 15 | 0.0 | 0.0 | 0.00 | 0.06 | 0.00 | 88 | 1027.1 |
| 20260906031220 | 53 | 15 | 0.0 | 0.0 | 0.00 | 0.06 | 0.00 | 88 | 1027.3 |
| 20260906030725 | 53 | 20 | 0.0 | 0.0 | 0.00 | 0.06 | 0.00 | 88 | 1027.3 |
| 20260906025719 | 53 | 31 | 0.0 | 0.0 | 0.00 | 0.06 | 0.00 | 88 | 1027.4 |
| 20260906025217 | 53 | 28 | 0.0 | 0.0 | 0.00 | 0.06 | 0.00 | 88 | 1027.4 |
| 20260906024721 | 53 | 28 | 0.0 | 0.0 | 0.00 | 0.06 | 0.00 | 88 | 1027.4 |
| 20260906024223 | 53 | 28 | 0.0 | 0.0 | 0.00 | 0.06 | 0.00 | 88 | 1027.3 |
| 20260906023709 | 53 | 28 | 0.0 | 0.0 | 0.00 | 0.06 | 0.00 | 88 | 1027.4 |
| 20260906023226 | 53 | 28 | 0.0 | 0.0 | 0.00 | 0.06 | 0.00 | 88 | 1027.4 |
| 20260906022730 | 53 | 20 | 0.0 | 0.0 | 0.00 | 0.06 | 0.00 | 88 | 1027.4 |
| 20260906022233 | 53 | 20 | 0.0 | 0.0 | 0.00 | 0.06 | 0.00 | 88 | 1027.3 |
| 20260906021718 | 53 | 20 | 0.0 | 0.0 | 0.00 | 0.06 | 0.00 | 88 | 1027.3 |
| 20260906020727 | 53 | 25 | 0.0 | 0.0 | 0.00 | 0.06 | 0.00 | 88 | 1027.1 |
| 20260906020227 | 53 | 148 | 0.0 | 0.0 | 0.00 | 0.06 | 0.00 | 88 | 1027.1 |
| 20260906015226 | 53 | 123 | 0.0 | 0.0 | 0.00 | 0.06 | 0.00 | 88 | 1027.1 |
| 20260906014715 | 53 | 133 | 0.0 | 0.0 | 0.00 | 0.06 | 0.00 | 88 | 1027.0 |
| 20260906014220 | 53 | 133 | 0.0 | 0.0 | 0.00 | 0.06 | 0.00 | 88 | 1027.0 |
| 20260906013725 | 53 | 133 | 0.0 | 0.0 | 0.00 | 0.06 | 0.00 | 88 | 1027.1 |
| 20260906013220 | 53 | 133 | 0.0 | 0.0 | 0.00 | 0.06 | 0.00 | 88 | 1027.1 |
| 20260906012211 | 53 | 98 | 0.0 | 0.0 | 0.00 | 0.06 | 0.00 | 87 | 1027.0 |
| 20260906011220 | 53 | 113 | 0.0 | 0.0 | 0.00 | 0.06 | 0.00 | 87 | 1027.1 |
| 20260906010229 | 54 | 113 | 0.0 | 0.0 | 0.00 | 0.06 | 0.00 | 87 | 1027.3 |
| 20260906005709 | 54 | 113 | 0.0 | 0.0 | 0.00 | 0.06 | 0.00 | 86 | 1027.4 |
| 20260906005217 | 54 | 113 | 0.0 | 0.0 | 0.00 | 0.06 | 0.00 | 87 | 1027.4 |
| 20260906004725 | 54 | 116 | 0.0 | 0.0 | 0.00 | 0.06 | 0.00 | 86 | 1027.4 |
| 20260906003212 | 54 | 116 | 0.0 | 0.0 | 0.00 | 0.06 | 0.00 | 86 | 1027.4 |
| 20260906002725 | 54 | 116 | 0.0 | 0.0 | 0.00 | 0.06 | 0.00 | 86 | 1027.4 |
| 20260906002229 | 54 | 116 | 0.0 | 0.0 | 0.00 | 0.06 | 0.00 | 86 | 1027.5 |
| 20260906001745 | 54 | 116 | 0.0 | 0.0 | 0.00 | 0.06 | 0.00 | 85 | 1027.5 |
| 20260906001215 | 55 | 116 | 0.0 | 0.0 | 0.00 | 0.06 | 0.00 | 85 | 1027.5 |
| 20260906000219 | 55 | 118 | 0.0 | 2.0 | 0.00 | 0.06 | 0.00 | 85 | 1027.5 |
| 20260905235722 | 55 | 118 | 0.0 | 0.0 | 0.00 | 0.06 | 0.00 | 85 | 1027.6 |
| 20260905235222 | 55 | 18 | 0.0 | 0.0 | 0.00 | 0.06 | 0.00 | 85 | 1027.6 |
| 20260905234717 | 55 | 5 | 0.0 | 0.0 | 0.00 | 0.06 | 0.00 | 85 | 1027.6 |
| 20260905234219 | 55 | 333 | 0.0 | 9.0 | 0.00 | 0.06 | 0.00 | 85 | 1027.6 |
| 20260905233719 | 55 | 346 | 1.0 | 9.0 | 0.00 | 0.06 | 0.00 | 84 | 1027.6 |
| 20260905232729 | 55 | 343 | 0.0 | 0.0 | 0.00 | 0.06 | 0.00 | 85 | 1027.6 |
| 20260905232218 | 55 | 61 | 0.0 | 0.0 | 0.00 | 0.06 | 0.00 | 85 | 1027.7 |